Weather in Legostayevo

Russia / Novosibirsk Oblast     54°38′25″N   83°49′12″E
temp.,
°C
wind,
m/s
gust,
m/s
humid.,
%
clouds,
%
prec.,
mm/h
press.,
hPa
HPBL,
m
27 february, sat
sat2701:00−24sw51195100 0.2 1036705
04:00−24sw51097100 0.2 1037629
07:00−25sw51097100 0.4 1037546
10:00−24sw5995100 0.1 1038560
13:00−22sw5893100 0.3 1038621
16:00−21sw4791100 0.1 1038667
19:00−23sw3796100 0.1 1038209
22:00−27sw339882 0.0 103940
28 february, sun
sun2801:00−29ssw239752 0.0 103924
04:00−30s239726 0.0 103925
07:00−30sse239839 0.0 103926
10:00−26sse389770 0.0 1038215
13:00−19sse589572 0.0 1035389
16:00−15s5988100 0.0 1032582
19:00−14sse4994100 0.1 1029345
22:00−13sse51095100 0.8 1025388
1 march, mon
mon101:00−11sse51195100 1.8 1021525
04:00−9s51195100 1.2 1018648
07:00−8s61295100 2.9 1014716
10:00−6s61195100 2.4 1011735
13:00−2ssw91595100 5.1 1009949
16:000sw91598100 2.1 1008930
19:000wsw81397100 4.8 1008932
22:00−1wsw61297100 1.6 1010807
2 march, tue
tue201:00−10nne3496100 2.6 1012163
04:00−12nne2296100 0.4 101439
07:00−15nne229693 0.5 101722
10:00−13sw019589 0.1 101893
13:00−10wsw349192 0.4 1019395
16:00−9wsw2390100 0.2 1018418
19:00−11wnw0096100 0.3 101721
22:00−13e119698 0.1 101621
3 march, wed
wed301:00−13ene129599 0.1 101420
04:00−12ne2496100 0.2 1012112
07:00−12ne2396100 0.8 1013124
10:00−12nne2395100 0.5 1013147
13:00−9nnw1190100 0.8 1015304
16:00−8w2293100 0.4 1016330
19:00−10nw2396100 1.0 101867
22:00−14ne129699 0.3 102021